| time (UTC) | temp C | wind direction | speed KPH | gust KPH | rain 1hr cm | rain 24hr cm | rain mn cm | humidity % | barometer mb |
| 20260507094559 | 13 | 288 | 0.0 | 0.0 | 0.00 | 0.00 | 0.00 | 92 | 1016.3 |
| 20260507093057 | 13 | 288 | 0.0 | 0.0 | 0.00 | 0.00 | 0.00 | 92 | 1016.3 |
| 20260507091555 | 13 | 288 | 0.0 | 0.0 | 0.00 | 0.00 | 0.00 | 92 | 1016.5 |
| 20260507090055 | 13 | 288 | 0.0 | 0.0 | 0.00 | 0.00 | 0.00 | 91 | 1016.7 |
| 20260507084551 | 14 | 288 | 0.0 | 0.0 | 0.00 | 0.00 | 0.00 | 91 | 1016.8 |
| 20260507083048 | 14 | 288 | 0.0 | 0.0 | 0.00 | 0.00 | 0.00 | 91 | 1016.9 |
| 20260507081546 | 14 | 288 | 0.0 | 0.0 | 0.00 | 0.00 | 0.00 | 91 | 1017.0 |
| 20260507080045 | 14 | 288 | 0.0 | 0.0 | 0.00 | 0.00 | 0.00 | 92 | 1017.1 |
| 20260507074556 | 15 | 288 | 0.0 | 0.0 | 0.00 | 0.00 | 0.00 | 92 | 1017.0 |
| 20260507073046 | 15 | 288 | 0.0 | 0.0 | 0.00 | 0.00 | 0.00 | 91 | 1017.0 |
| 20260507071541 | 15 | 288 | 0.0 | 0.0 | 0.00 | 0.00 | 0.00 | 91 | 1017.0 |
| 20260507070048 | 15 | 288 | 0.0 | 0.0 | 0.00 | 0.00 | 0.00 | 90 | 1017.2 |
| 20260507064538 | 15 | 288 | 0.0 | 0.0 | 0.00 | 0.00 | 0.00 | 90 | 1017.2 |
| 20260507063052 | 15 | 288 | 0.0 | 0.0 | 0.00 | 0.00 | 0.00 | 90 | 1017.3 |
| 20260507061537 | 15 | 288 | 0.0 | 0.0 | 0.00 | 0.00 | 0.00 | 89 | 1017.3 |
| 20260507060044 | 16 | 288 | 0.0 | 0.0 | 0.00 | 0.00 | 0.00 | 90 | 1017.3 |
| 20260507054542 | 16 | 288 | 0.0 | 11.3 | 0.00 | 0.00 | 0.00 | 89 | 1017.3 |
| 20260507053039 | 16 | 277 | 3.2 | 12.9 | 0.00 | 0.00 | 0.00 | 89 | 1017.3 |
| 20260507051536 | 16 | 278 | 4.8 | 12.9 | 0.00 | 0.00 | 0.00 | 89 | 1017.3 |
| 20260507050037 | 16 | 263 | 4.8 | 14.5 | 0.00 | 0.00 | 0.00 | 89 | 1017.2 |
| 20260507044534 | 16 | 272 | 4.8 | 14.5 | 0.00 | 0.00 | 0.00 | 89 | 1017.2 |
| 20260507043037 | 16 | 265 | 6.4 | 16.1 | 0.00 | 0.00 | 0.00 | 88 | 1017.1 |
| 20260507041533 | 16 | 276 | 3.2 | 12.9 | 0.00 | 0.00 | 0.00 | 87 | 1017.1 |
| 20260507040034 | 16 | 275 | 6.4 | 11.3 | 0.00 | 0.00 | 0.00 | 87 | 1016.9 |
| 20260507034537 | 16 | 277 | 3.2 | 12.9 | 0.00 | 0.00 | 0.00 | 86 | 1016.7 |
| 20260507033032 | 16 | 262 | 3.2 | 11.3 | 0.00 | 0.00 | 0.00 | 85 | 1016.6 |
| 20260507031530 | 16 | 288 | 4.8 | 16.1 | 0.00 | 0.00 | 0.00 | 85 | 1016.4 |
| 20260507030031 | 17 | 284 | 9.7 | 22.5 | 0.00 | 0.00 | 0.00 | 85 | 1016.3 |
| 20260507024530 | 17 | 267 | 9.7 | 17.7 | 0.00 | 0.00 | 0.00 | 84 | 1016.2 |
| 20260507023029 | 17 | 280 | 11.3 | 22.5 | 0.00 | 0.00 | 0.00 | 83 | 1016.0 |
| 20260507021530 | 17 | 281 | 12.9 | 24.1 | 0.00 | 0.00 | 0.00 | 82 | 1016.0 |
| 20260507020039 | 17 | 252 | 14.5 | 25.7 | 0.00 | 0.00 | 0.00 | 81 | 1015.8 |
| 20260507014528 | 17 | 269 | 17.7 | 25.7 | 0.00 | 0.00 | 0.00 | 82 | 1015.7 |
| 20260507013044 | 18 | 274 | 16.1 | 30.6 | 0.00 | 0.00 | 0.00 | 82 | 1015.7 |
| 20260507011526 | 18 | 286 | 12.9 | 29.0 | 0.00 | 0.00 | 0.00 | 82 | 1015.6 |
| 20260507010034 | 18 | 270 | 20.9 | 32.2 | 0.00 | 0.00 | 0.00 | 81 | 1015.6 |
| 20260507004525 | 18 | 277 | 20.9 | 37.0 | 0.00 | 0.00 | 0.00 | 80 | 1015.5 |
| 20260507003025 | 19 | 276 | 16.1 | 33.8 | 0.00 | 0.00 | 0.00 | 79 | 1015.6 |
| 20260507001529 | 20 | 259 | 17.7 | 32.2 | 0.00 | 0.00 | 0.00 | 78 | 1015.5 |
| 20260507000023 | 20 | 277 | 14.5 | 35.4 | 0.00 | 0.00 | 0.00 | 77 | 1015.5 |
| 20260506234529 | 20 | 265 | 19.3 | 30.6 | 0.00 | 0.00 | 0.00 | 76 | 1015.4 |
| 20260506233022 | 20 | 261 | 19.3 | 32.2 | 0.00 | 0.00 | 0.00 | 76 | 1015.5 |
| 20260506231519 | 20 | 281 | 22.5 | 30.6 | 0.00 | 0.00 | 0.00 | 74 | 1015.6 |
| 20260506230021 | 21 | 281 | 11.3 | 24.1 | 0.00 | 0.00 | 0.00 | 75 | 1015.8 |
| 20260506224517 | 21 | 304 | 16.1 | 27.4 | 0.00 | 0.00 | 0.00 | 74 | 1016.0 |
| 20260506223013 | 20 | 298 | 12.9 | 25.7 | 0.00 | 0.00 | 0.00 | 74 | 1016.2 |
| 20260506221511 | 21 | 269 | 16.1 | 27.4 | 0.00 | 0.00 | 0.00 | 72 | 1016.3 |
| 20260506220020 | 21 | 255 | 9.7 | 22.5 | 0.00 | 0.00 | 0.00 | 69 | 1016.6 |
| 20260506214509 | 22 | 257 | 11.3 | 27.4 | 0.00 | 0.00 | 0.00 | 65 | 1016.7 |
| 20260506213006 | 22 | 241 | 8.0 | 17.7 | 0.00 | 0.00 | 0.00 | 66 | 1016.8 |
| 20260506211502 | 22 | 225 | 9.7 | 22.5 | 0.00 | 0.00 | 0.00 | 63 | 1016.9 |
| 20260506210007 | 22 | 236 | 8.0 | 17.7 | 0.00 | 0.00 | 0.00 | 64 | 1017.1 |
| 20260506204601 | 21 | 234 | 9.7 | 17.7 | 0.00 | 0.00 | 0.00 | 64 | 1017.2 |
| 20260506203057 | 21 | 245 | 8.0 | 17.7 | 0.00 | 0.00 | 0.00 | 68 | 1017.3 |
| 20260506201554 | 21 | 223 | 9.7 | 19.3 | 0.00 | 0.00 | 0.00 | 71 | 1017.5 |
| 20260506200053 | 20 | 206 | 9.7 | 20.9 | 0.00 | 0.00 | 0.00 | 73 | 1017.6 |
| 20260506194554 | 21 | 219 | 9.7 | 19.3 | 0.00 | 0.00 | 0.00 | 73 | 1017.8 |
| 20260506193052 | 20 | 196 | 9.7 | 17.7 | 0.00 | 0.00 | 0.00 | 73 | 1017.9 |
| 20260506191551 | 21 | 226 | 9.7 | 16.1 | 0.00 | 0.00 | 0.00 | 72 | 1018.0 |
| 20260506190050 | 20 | 219 | 4.8 | 16.1 | 0.00 | 0.00 | 0.00 | 73 | 1018.2 |
| 20260506184549 | 20 | 165 | 8.0 | 17.7 | 0.00 | 0.00 | 0.00 | 74 | 1018.3 |
| 20260506183048 | 20 | 248 | 8.0 | 16.1 | 0.00 | 0.00 | 0.00 | 72 | 1018.5 |
| 20260506181546 | 20 | 225 | 8.0 | 16.1 | 0.00 | 0.00 | 0.00 | 73 | 1018.5 |
| 20260506180047 | 20 | 227 | 6.4 | 16.1 | 0.00 | 0.00 | 0.00 | 73 | 1018.5 |
| 20260506174547 | 20 | 164 | 6.4 | 16.1 | 0.00 | 0.00 | 0.00 | 73 | 1018.4 |
| 20260506173053 | 20 | 201 | 6.4 | 17.7 | 0.00 | 0.00 | 0.00 | 72 | 1018.4 |
| 20260506171551 | 20 | 175 | 6.4 | 19.3 | 0.00 | 0.00 | 0.00 | 73 | 1018.3 |
| 20260506170043 | 20 | 206 | 6.4 | 14.5 | 0.00 | 0.00 | 0.00 | 71 | 1018.4 |
| 20260506164553 | 20 | 209 | 4.8 | 12.9 | 0.00 | 0.00 | 0.00 | 71 | 1018.3 |
| 20260506163043 | 20 | 217 | 3.2 | 12.9 | 0.00 | 0.00 | 0.00 | 71 | 1018.2 |
| 20260506161540 | 20 | 225 | 3.2 | 14.5 | 0.00 | 0.00 | 0.00 | 71 | 1018.2 |
| 20260506160046 | 20 | 146 | 0.0 | 0.0 | 0.00 | 0.00 | 0.00 | 70 | 1018.3 |
| 20260506154543 | 20 | 137 | 0.0 | 0.0 | 0.00 | 0.00 | 0.00 | 71 | 1018.4 |
| 20260506153035 | 19 | 83 | 0.0 | 0.0 | 0.00 | 0.00 | 0.00 | 72 | 1018.4 |
| 20260506151531 | 18 | 78 | 0.0 | 6.4 | 0.00 | 0.00 | 0.00 | 73 | 1018.4 |
| 20260506150026 | 18 | 83 | 0.0 | 0.0 | 0.00 | 0.00 | 0.00 | 75 | 1018.4 |
| 20260506144527 | 17 | 84 | 0.0 | 0.0 | 0.00 | 0.00 | 0.00 | 77 | 1018.4 |
| 20260506143022 | 15 | 82 | 0.0 | 0.0 | 0.00 | 0.00 | 0.00 | 82 | 1018.3 |
| 20260506141515 | 13 | 84 | 0.0 | 0.0 | 0.00 | 0.00 | 0.00 | 90 | 1018.2 |
| 20260506140015 | 12 | 93 | 0.0 | 0.0 | 0.00 | 0.00 | 0.00 | 91 | 1018.1 |
| 20260506134513 | 11 | 117 | 0.0 | 0.0 | 0.00 | 0.00 | 0.00 | 92 | 1018.1 |
| 20260506133014 | 11 | 136 | 0.0 | 0.0 | 0.00 | 0.00 | 0.00 | 91 | 1017.9 |
| 20260506131516 | 11 | 136 | 0.0 | 0.0 | 0.00 | 0.00 | 0.00 | 91 | 1017.8 |
| 20260506130014 | 11 | 136 | 0.0 | 0.0 | 0.00 | 0.00 | 0.00 | 91 | 1017.6 |
| 20260506124506 | 12 | 136 | 0.0 | 0.0 | 0.00 | 0.00 | 0.00 | 91 | 1017.5 |
| 20260506123006 | 12 | 136 | 0.0 | 0.0 | 0.00 | 0.00 | 0.00 | 91 | 1017.4 |
| 20260506121504 | 12 | 136 | 0.0 | 0.0 | 0.00 | 0.00 | 0.00 | 90 | 1017.2 |
| 20260506120003 | 12 | 136 | 0.0 | 0.0 | 0.00 | 0.00 | 0.00 | 90 | 1017.2 |
| 20260506114503 | 12 | 136 | 0.0 | 0.0 | 0.00 | 0.00 | 0.00 | 90 | 1017.2 |
| 20260506113002 | 12 | 136 | 0.0 | 0.0 | 0.00 | 0.00 | 0.00 | 91 | 1017.1 |
| 20260506111559 | 12 | 137 | 0.0 | 0.0 | 0.00 | 0.00 | 0.00 | 91 | 1017.1 |
| 20260506110101 | 13 | 137 | 0.0 | 0.0 | 0.00 | 0.00 | 0.00 | 90 | 1017.1 |
| 20260506104557 | 13 | 137 | 0.0 | 0.0 | 0.00 | 0.00 | 0.00 | 91 | 1017.2 |
| 20260506103056 | 13 | 137 | 0.0 | 0.0 | 0.00 | 0.00 | 0.00 | 90 | 1017.2 |
| 20260506101554 | 13 | 137 | 0.0 | 0.0 | 0.00 | 0.00 | 0.00 | 90 | 1017.1 |
| 20260506100054 | 13 | 137 | 0.0 | 0.0 | 0.00 | 0.00 | 0.00 | 89 | 1017.0 |